FW6122 Weather Reports


time (UTC)temp
C
wind
direction
speed
KPH
gust
KPH
rain 1hr
cm
rain 24hr
cm
rain mn
cm
humidity
%
barometer
mb
20260507083105 7 360 0.0 0.0 0.00 0.00 0.00 68 1019.1
20260507081557 7 360 0.0 3.2 0.00 0.00 0.00 68 1019.2
20260507080045 7 360 0.0 3.2 0.00 0.00 0.00 68 1019.4
20260507074547 7 360 0.0 0.0 0.00 0.00 0.00 69 1019.4
20260507073053 7 360 0.0 0.0 0.00 0.00 0.00 68 1019.4
20260507071541 7 360 0.0 3.2 0.00 0.00 0.00 69 1019.5
20260507070041 7 360 0.0 3.2 0.00 0.00 0.00 70 1019.6
20260507064541 7 360 0.0 3.2 0.00 0.00 0.00 72 1019.6
20260507063043 7 360 0.0 3.2 0.00 0.00 0.00 73 1019.7
20260507061537 6 360 0.0 3.2 0.00 0.00 0.00 76 1019.8
20260507060042 6 360 0.0 1.6 0.00 0.00 0.00 78 1020.0
20260507054541 6 360 0.0 0.0 0.00 0.00 0.00 80 1020.1
20260507053037 6 360 0.0 0.0 0.00 0.00 0.00 81 1020.0
20260507051536 7 360 0.0 0.0 0.00 0.00 0.00 80 1019.8
20260507050039 7 360 0.0 0.0 0.00 0.00 0.00 80 1019.8
20260507044539 7 360 0.0 0.0 0.00 0.00 0.00 80 1019.8
20260507043034 7 360 0.0 0.0 0.00 0.00 0.00 81 1019.8
20260507041542 7 360 0.0 0.0 0.00 0.00 0.00 81 1019.9
20260507040034 8 360 0.0 0.0 0.00 0.00 0.00 80 1020.0
20260507034533 8 360 0.0 0.0 0.00 0.00 0.00 81 1019.8
20260507033035 8 360 0.0 0.0 0.00 0.00 0.00 83 1019.6
20260507031532 9 360 0.0 0.0 0.00 0.00 0.00 81 1019.5
20260507030031 10 360 0.0 0.0 0.00 0.00 0.00 79 1019.4
20260507024530 10 360 0.0 0.0 0.00 0.00 0.00 76 1019.4
20260507023029 11 360 0.0 0.0 0.00 0.00 0.00 70 1019.3
20260507021528 12 360 0.0 1.6 0.00 0.00 0.00 66 1019.5
20260507020028 12 18 0.0 0.0 0.00 0.00 0.00 57 1019.6
20260507014538 13 360 0.0 3.2 0.00 0.00 0.00 50 1019.5
20260507013027 13 360 1.6 6.4 0.00 0.00 0.00 44 1019.5
20260507011528 13 5 1.6 6.4 0.00 0.00 0.00 45 1019.6
20260507010026 13 34 1.6 8.0 0.00 0.00 0.00 44 1019.6
20260507004533 13 51 3.2 9.7 0.00 0.00 0.00 43 1019.6
20260507003030 14 355 1.6 9.7 0.00 0.00 0.00 41 1019.6
20260507001526 14 27 0.0 16.1 0.00 0.00 0.00 41 1019.6
20260507000026 15 340 1.6 8.0 0.00 0.00 0.00 42 1019.6
20260506234533 15 69 3.2 12.9 0.00 0.00 0.00 42 1019.7
20260506233022 14 340 4.8 17.7 0.00 0.00 0.00 40 1019.7
20260506231531 15 36 3.2 14.5 0.00 0.00 0.00 40 1019.8
20260506230018 14 281 3.2 19.3 0.00 0.00 0.00 41 1020.0
20260506224518 15 313 4.8 17.7 0.00 0.00 0.00 41 1020.1
20260506223020 14 51 8.0 17.7 0.00 0.00 0.00 41 1020.4
20260506221514 15 355 9.7 22.5 0.00 0.00 0.00 41 1020.7
20260506220013 14 56 8.0 17.7 0.00 0.00 0.00 45 1021.0
20260506214512 15 36 6.4 14.5 0.00 0.00 0.00 41 1021.2
20260506213010 14 26 4.8 14.5 0.00 0.00 0.00 43 1021.4
20260506211513 14 42 4.8 14.5 0.00 0.00 0.00 45 1021.5
20260506210008 13 89 6.4 20.9 0.00 0.00 0.00 45 1021.5
20260506204506 13 42 8.0 17.7 0.00 0.00 0.00 45 1021.6
20260506203003 13 17 1.6 12.9 0.00 0.00 0.00 47 1021.6
20260506201610 13 42 4.8 17.7 0.00 0.00 0.00 45 1021.7
20260506194610 12 24 1.6 17.7 0.00 0.00 0.00 48 1021.9
20260506193053 12 15 3.2 16.1 0.00 0.00 0.00 49 1022.0
20260506191553 12 329 3.2 14.5 0.00 0.00 0.00 49 1022.2
20260506190054 13 310 4.8 12.9 0.00 0.00 0.00 49 1022.3
20260506184556 12 51 4.8 20.9 0.00 0.00 0.00 48 1022.4
20260506183058 12 34 6.4 17.7 0.00 0.00 0.00 48 1022.4
20260506181543 11 9 1.6 16.1 0.00 0.00 0.00 50 1022.3
20260506180047 11 46 3.2 9.7 0.00 0.00 0.00 49 1022.4
20260506174542 11 34 3.2 14.5 0.00 0.03 0.00 51 1022.3
20260506173035 11 355 4.8 14.5 0.00 0.03 0.00 50 1022.4
20260506171538 11 349 1.6 9.7 0.00 0.03 0.00 56 1022.2
20260506170034 11 5 1.6 9.7 0.00 0.03 0.00 57 1022.0
20260506164526 10 84 1.6 14.5 0.00 0.03 0.00 59 1021.9
20260506163023 9 360 1.6 12.9 0.00 0.03 0.00 61 1021.9
20260506161520 9 5 3.2 12.9 0.00 0.03 0.00 62 1021.9
20260506160019 8 121 0.0 12.9 0.00 0.05 0.00 65 1021.7
20260506154515 8 91 1.6 8.0 0.00 0.05 0.00 66 1021.7
20260506153013 8 95 0.0 6.4 0.00 0.05 0.00 67 1021.6
20260506151511 8 36 1.6 8.0 0.00 0.05 0.00 68 1021.6
20260506150006 7 98 1.6 6.4 0.00 0.13 0.00 74 1021.5
20260506144502 6 9 0.0 6.4 0.00 0.13 0.00 89 1021.5
20260506143108 5 350 0.0 6.4 0.00 0.13 0.00 96 1021.3
20260506141554 3 30 0.0 8.0 0.00 0.13 0.00 96 1021.2
20260506140050 1 289 0.0 0.0 0.00 0.13 0.00 96 1021.2
20260506134548 1 289 0.0 0.0 0.00 0.23 0.00 95 1020.9
20260506133045 0 289 0.0 0.0 0.00 0.23 0.00 95 1020.7
20260506131543 0 289 0.0 0.0 0.00 0.23 0.00 95 1020.4
20260506130042 0 289 0.0 0.0 0.00 0.23 0.00 95 1020.1
20260506124541 0 289 0.0 0.0 0.00 0.36 0.00 95 1020.0
20260506123039 0 289 0.0 0.0 0.00 0.36 0.00 95 1019.8
20260506121537 0 289 0.0 0.0 0.00 0.36 0.00 95 1019.7
20260506120042 0 289 0.0 0.0 0.00 0.36 0.00 95 1019.6
20260506114535 0 289 0.0 0.0 0.00 0.41 0.00 95 1019.6
20260506113035 0 289 0.0 0.0 0.00 0.41 0.00 95 1019.5
20260506111533 0 289 0.0 0.0 0.00 0.41 0.00 95 1019.4
20260506110033 0 289 0.0 0.0 0.00 0.41 0.00 95 1019.3
20260506104531 0 289 0.0 0.0 0.00 0.46 0.00 95 1019.1
20260506103035 0 289 0.0 0.0 0.00 0.46 0.00 95 1019.1
20260506101528 0 289 0.0 0.0 0.00 0.46 0.00 95 1019.0
20260506100029 0 289 0.0 0.0 0.00 0.46 0.00 95 1018.9
20260506094526 0 289 0.0 0.0 0.00 0.51 0.00 95 1019.0
20260506093025 0 289 0.0 0.0 0.00 0.51 0.00 95 1018.8
20260506091524 0 289 0.0 0.0 0.00 0.51 0.00 95 1019.0
20260506090038 0 289 0.0 0.0 0.00 0.51 0.00 94 1019.0
20260506084523 0 289 0.0 0.0 0.00 0.51 0.00 94 1018.9